Hourly Data Report for November 15, 2019

SHEARWATER RCS
NOVA SCOTIA
Current Station Operator: ECCC - MSC

44°37'47.000" N
63°30'48.000" W
24.00 m
8205092
71264
AAW

Download Data

Hourly Data (November 2019)
Hourly Data Report for November 15, 2019
TIME
LST
Temp Definition
°C
Dew Point Definition
°C
Rel Hum Definition
%
Precip. Amount Definition
mm

Wind Dir Definition
10's deg

Wind Spd Definition
km/h
Visibility Definition
km
Stn Press Definition
kPa
Hmdx Definition


Wind Chill Definition


Weather Definition


00:00 3.1 -2.1 69 0.0 19 16   102.78     LegendNANA
01:00 3.7 -1.5 69 0.0 19 22   102.70     LegendNANA
02:00 3.9 -1.0 70 0.0 19 20   102.66     LegendNANA
03:00 4.5 0.3 74 0.0 19 18   102.58     LegendNANA
04:00 5.3 0.1 69 0.0 19 19   102.48     LegendNANA
05:00 5.5 1.4 75 0.0 19 18   102.39     LegendNANA
06:00 5.7 3.1 83 0.3 18 17   102.30     LegendNANA
07:00 6.9 3.9 81 0.0 18 21   102.20     LegendNANA
08:00 8.0 4.9 81 0.0 17 27   102.13     LegendNANA
09:00 8.5 6.3 86 0.0 17 29   102.04     LegendNANA
10:00 9.5 4.8 73 0.0 18 28   101.90     LegendNANA
11:00 8.9 6.4 84 0.7 19 28   101.77     LegendNANA
12:00 9.7 7.5 86 0.9 19 28   101.58     LegendNANA
13:00 10.2 7.5 84 0.6 19 32   101.40     LegendNANA
14:00 10.3 8.5 89 1.7 21 32   101.29     LegendNANA
15:00 9.8 8.1 89 2.3 23 26   101.26     LegendNANA
16:00 9.1 7.1 87 0.5 23 27   101.24     LegendNANA
17:00 8.4 6.7 89 0.5 23 24   101.21     LegendNANA
18:00 7.9 5.8 87 0.4 23 25   101.18     LegendNANA
19:00 7.2 5.1 87 0.0 24 16   101.14     LegendNANA
20:00 7.0 5.0 88 0.0 23 16   101.16     LegendNANA
21:00 6.9 4.8 86 0.0 24 14   101.09     LegendNANA
22:00 6.8 3.9 82 0.0 25 14   101.06     LegendNANA
23:00 6.0 3.4 83 0.0 26 9   101.03     LegendNANA

Notes on Data Quality.

Legend

  • E = Estimated
  • M = Missing
  • NA = Not Available*
  • [empty] = Indicates an unobserved value
Date modified: